When you browse on this site, cookies collect data to enhance your experience and personalize the content and advertising you see.
Visit our Privacy Policy to learn more. By continuing to use the site, you agree to this use of cookies and data.
  • In Spain
  • List of Countries
  • For 7 days
  • Water Temperature
  • Weather Map
  • Weather Widgets
  • user-avatar
    Login

    Hourly Weather Linz

    Today, 10 April, Friday

    Time Temperature Precipitation Wind Pressure Humidity
    00:00 +11°C° 0 mm 1 mps 739 mmHg 72%
    01:00 +11°C° 0 mm 1 mps 739 mmHg 76%
    02:00 +10°C° 0 mm 1 mps 739 mmHg 79%
    03:00 +10°C° 0 mm 1 mps 739 mmHg 81%
    04:00 +9°C° 0 mm 1 mps 739 mmHg 84%
    05:00 +10°C° 0 mm 1 mps 739 mmHg 82%
    06:00 +10°C° 0 mm 0 mps 739 mmHg 79%
    07:00 +11°C° 0 mm 0 mps 739 mmHg 77%
    08:00 +14°C° 0 mm 1 mps 739 mmHg 71%
    09:00 +15°C° 0 mm 1 mps 739 mmHg 65%
    10:00 +17°C° 0 mm 2 mps 739 mmHg 59%
    11:00 +19°C° 0 mm 1 mps 739 mmHg 56%
    12:00 +21°C° 0 mm 1 mps 739 mmHg 53%
    13:00 +22°C° 0 mm 1 mps 738 mmHg 50%
    14:00 +21°C° 0 mm 1 mps 738 mmHg 49%
    15:00 +21°C° 0 mm 1 mps 738 mmHg 49%
    16:00 +21°C° 0 mm 1 mps 737 mmHg 49%
    17:00 +19°C° 0 mm 1 mps 737 mmHg 57%
    18:00 +16°C° 0 mm 1 mps 737 mmHg 66%
    19:00 +14°C° 0 mm 1 mps 737 mmHg 74%
    20:00 +13°C° 0 mm 1 mps 737 mmHg 77%
    21:00 +12°C° 0 mm 1 mps 738 mmHg 79%
    22:00 +12°C° 0 mm 1 mps 738 mmHg 82%
    23:00 +11°C° 0 mm 1 mps 738 mmHg 82%

    Tomorrow, 11 April, Saturday

    Time Temperature Precipitation Wind Pressure Humidity
    00:00 +11°C° 0 mm 1 mps 738 mmHg 81%
    01:00 +11°C° 0 mm 1 mps 738 mmHg 81%
    02:00 +10°C° 0 mm 1 mps 738 mmHg 83%
    03:00 +10°C° 0 mm 1 mps 738 mmHg 85%
    04:00 +9°C° 0 mm 1 mps 738 mmHg 86%
    05:00 +9°C° 0 mm 0 mps 738 mmHg 84%
    06:00 +10°C° 0 mm 0 mps 738 mmHg 81%
    07:00 +10°C° 0 mm 0 mps 739 mmHg 78%
    08:00 +13°C° 0 mm 1 mps 739 mmHg 73%
    09:00 +15°C° 0 mm 1 mps 739 mmHg 67%
    10:00 +16°C° 0 mm 1 mps 739 mmHg 62%
    11:00 +18°C° 0 mm 1 mps 739 mmHg 59%
    12:00 +19°C° 0 mm 1 mps 738 mmHg 56%
    13:00 +20°C° 0 mm 1 mps 738 mmHg 53%
    14:00 +20°C° 0 mm 1 mps 738 mmHg 52%
    15:00 +20°C° 0 mm 1 mps 738 mmHg 51%
    16:00 +20°C° 0 mm 1 mps 737 mmHg 50%
    17:00 +18°C° 0 mm 1 mps 737 mmHg 58%
    18:00 +15°C° 0 mm 2 mps 737 mmHg 66%
    19:00 +13°C° 0 mm 2 mps 737 mmHg 74%
    20:00 +12°C° 0 mm 2 mps 737 mmHg 76%
    21:00 +11°C° 0 mm 1 mps 738 mmHg 79%
    22:00 +10°C° 0 mm 1 mps 738 mmHg 81%
    23:00 +10°C° 0 mm 1 mps 738 mmHg 82%

    Day after tomorrow, 12 April, Sunday

    Time Temperature Precipitation Wind Pressure Humidity
    00:00 +10°C° 0 mm 1 mps 738 mmHg 83%
    01:00 +9°C° 0 mm 1 mps 737 mmHg 84%
    02:00 +9°C° 0 mm 1 mps 737 mmHg 85%
    03:00 +8°C° 0 mm 1 mps 737 mmHg 86%
    04:00 +8°C° 0 mm 1 mps 737 mmHg 87%
    05:00 +9°C° 0 mm 1 mps 737 mmHg 84%
    06:00 +10°C° 0 mm 1 mps 737 mmHg 81%
    07:00 +11°C° 0 mm 1 mps 737 mmHg 78%
    08:00 +13°C° 0 mm 1 mps 736 mmHg 73%
    09:00 +15°C° 0 mm 1 mps 736 mmHg 68%
    10:00 +18°C° 0 mm 1 mps 735 mmHg 63%
    11:00 +19°C° 0.1 mm 1 mps 735 mmHg 59%
    12:00 +20°C° 0.1 mm 1 mps 734 mmHg 56%
    13:00 +21°C° 0.1 mm 2 mps 734 mmHg 52%
    14:00 +22°C° 0.2 mm 1 mps 733 mmHg 52%
    15:00 +22°C° 0.2 mm 1 mps 733 mmHg 52%
    16:00 +22°C° 0.2 mm 1 mps 732 mmHg 51%
    17:00 +20°C° 0 mm 1 mps 732 mmHg 58%
    18:00 +18°C° 0 mm 1 mps 731 mmHg 65%
    19:00 +14°C° 0 mm 0 mps 731 mmHg 72%
    20:00 +15°C° 0 mm 1 mps 731 mmHg 74%
    21:00 +14°C° 0 mm 1 mps 731 mmHg 75%
    22:00 +14°C° 0 mm 1 mps 731 mmHg 77%
    23:00 +13°C° 0 mm 1 mps 731 mmHg 78%

    13 April, Monday

    Time Temperature Precipitation Wind Pressure Humidity
    00:00 +13°C° 0 mm 1 mps 730 mmHg 79%
    01:00 +13°C° 0 mm 1 mps 730 mmHg 80%
    02:00 +12°C° 0 mm 1 mps 730 mmHg 81%
    03:00 +11°C° 0 mm 0 mps 730 mmHg 81%
    04:00 +11°C° 0 mm 0 mps 730 mmHg 82%
    05:00 +11°C° 0 mm 0 mps 730 mmHg 81%
    06:00 +12°C° 0 mm 0 mps 730 mmHg 79%
    07:00 +13°C° 0 mm 1 mps 730 mmHg 78%
    08:00 +14°C° 0.1 mm 1 mps 730 mmHg 74%
    09:00 +16°C° 0.1 mm 2 mps 730 mmHg 71%
    10:00 +17°C° 0.1 mm 3 mps 730 mmHg 67%
    11:00 +18°C° 0.5 mm 3 mps 729 mmHg 65%
    12:00 +19°C° 0.5 mm 3 mps 729 mmHg 62%
    13:00 +19°C° 0.5 mm 2 mps 729 mmHg 59%
    14:00 +19°C° 0.8 mm 3 mps 729 mmHg 63%
    15:00 +18°C° 0.8 mm 3 mps 728 mmHg 67%
    16:00 +17°C° 0.8 mm 3 mps 728 mmHg 71%
    17:00 +16°C° 0.3 mm 3 mps 728 mmHg 75%
    18:00 +14°C° 0.3 mm 3 mps 728 mmHg 79%
    19:00 +14°C° 0.3 mm 2 mps 728 mmHg 83%
    20:00 +13°C° 0.2 mm 2 mps 728 mmHg 85%
    21:00 +12°C° 0.2 mm 2 mps 729 mmHg 86%
    22:00 +12°C° 0.2 mm 2 mps 729 mmHg 87%
    23:00 +12°C° 0.3 mm 2 mps 729 mmHg 89%

    14 April, Tuesday

    Time Temperature Precipitation Wind Pressure Humidity
    00:00 +10°C° 0.3 mm 2 mps 729 mmHg 91%
    01:00 +10°C° 0.3 mm 2 mps 730 mmHg 93%
    02:00 +10°C° 0.7 mm 2 mps 730 mmHg 93%
    03:00 +9°C° 0.7 mm 2 mps 730 mmHg 93%
    04:00 +9°C° 0.7 mm 2 mps 730 mmHg 93%
    05:00 +8°C° 0.8 mm 3 mps 731 mmHg 91%
    06:00 +7°C° 0.8 mm 3 mps 731 mmHg 89%
    07:00 +5°C° 0.8 mm 4 mps 732 mmHg 88%
    08:00 +5°C° 0 mm 4 mps 732 mmHg 83%
    09:00 +5°C° 0 mm 3 mps 732 mmHg 78%
    10:00 +5°C° 0 mm 3 mps 733 mmHg 74%
    11:00 +8°C° 0 mm 3 mps 733 mmHg 66%
    12:00 +9°C° 0 mm 3 mps 733 mmHg 59%
    13:00 +11°C° 0 mm 3 mps 733 mmHg 51%
    14:00 +11°C° 0 mm 3 mps 733 mmHg 50%
    15:00 +11°C° 0 mm 3 mps 733 mmHg 48%
    16:00 +11°C° 0 mm 3 mps 733 mmHg 47%
    17:00 +10°C° 0 mm 3 mps 733 mmHg 51%
    18:00 +8°C° 0 mm 3 mps 733 mmHg 55%
    19:00 +5°C° 0 mm 3 mps 733 mmHg 59%
    20:00 +4°C° 0 mm 3 mps 733 mmHg 59%
    21:00 +4°C° 0 mm 4 mps 733 mmHg 59%
    22:00 +3°C° 0 mm 4 mps 734 mmHg 59%
    23:00 +3°C° 0 mm 4 mps 734 mmHg 60%

    15 April, Wednesday

    Time Temperature Precipitation Wind Pressure Humidity
    00:00 +1°C° 0 mm 4 mps 734 mmHg 60%
    01:00 +1°C° 0 mm 4 mps 733 mmHg 60%
    02:00 +1°C° 0 mm 4 mps 733 mmHg 62%
    03:00 +1°C° 0 mm 4 mps 733 mmHg 63%
    04:00 0°C° 0 mm 4 mps 733 mmHg 65%
    05:00 +1°C° 0 mm 4 mps 733 mmHg 64%
    06:00 +3°C° 0 mm 4 mps 733 mmHg 63%
    07:00 +3°C° 0 mm 4 mps 733 mmHg 62%
    08:00 +5°C° 0 mm 4 mps 733 mmHg 59%
    09:00 +7°C° 0 mm 5 mps 732 mmHg 56%
    10:00 +9°C° 0 mm 5 mps 732 mmHg 53%
    11:00 +10°C° 0 mm 5 mps 732 mmHg 52%
    12:00 +12°C° 0 mm 5 mps 732 mmHg 50%
    13:00 +14°C° 0 mm 5 mps 731 mmHg 49%
    14:00 +14°C° 0 mm 5 mps 731 mmHg 51%
    15:00 +14°C° 0 mm 5 mps 731 mmHg 53%
    16:00 +14°C° 0 mm 6 mps 731 mmHg 55%
    17:00 +12°C° 0 mm 5 mps 731 mmHg 60%
    18:00 +10°C° 0 mm 5 mps 731 mmHg 66%
    19:00 +8°C° 0 mm 4 mps 731 mmHg 71%
    20:00 +7°C° 0 mm 4 mps 731 mmHg 73%
    21:00 +6°C° 0 mm 4 mps 732 mmHg 76%
    22:00 +5°C° 0 mm 4 mps 732 mmHg 78%
    23:00 +5°C° 0 mm 3 mps 732 mmHg 79%
    Show more